{"data":{"norad_id":60028,"epoch":"2026-05-25T02:23:17.092896Z","epoch_age_seconds":56536,"freshness":"FRESH","line1":"1 60028U 24111N   26145.09950339  .00000083  00000+0  14939-4 0  9991","line2":"2 60028  53.1603  80.6000 0001346  66.4249 293.6893 15.30193884110739","mean_motion":15.30193884,"eccentricity":0.0001346,"inclination_deg":53.1603,"raan_deg":80.6,"arg_perigee_deg":66.4249,"mean_anomaly_deg":293.6893,"bstar":1.4939e-5,"rev_number":11073,"period_min":94.105721834136,"perigee_km":474.31086710721,"apogee_km":476.15579440025,"semimajor_km":6853.3703307537,"source":"CELESTRAK","updated_at":"2026-05-25T13:38:19.133162Z"}}